• Em Portugal
  • Lista de países
  • Para 7 dias
  • Temperatura da água
  • Mapas de satélite
  • Mapa do tempo
  • Widgets de tempo
  • user-avatar
    Iniciar Sessão

    Previsão horária em Nagoia

    Hoje, 25 Setembro, Terça-feira

    Tempo Temperatura Precipitação Vento Pressão Humidade
    00:00 +24°C° 0 mm 1 m/s 751 mmHg 72%
    01:00 +24°C° 0.1 mm 2 m/s 751 mmHg 74%
    02:00 +24°C° 0.1 mm 2 m/s 751 mmHg 75%
    03:00 +24°C° 0 mm 2 m/s 751 mmHg 77%
    04:00 +23°C° 0.6 mm 2 m/s 751 mmHg 77%
    05:00 +23°C° 0.6 mm 2 m/s 751 mmHg 78%
    06:00 +23°C° 0.6 mm 2 m/s 751 mmHg 78%
    07:00 +23°C° 1.7 mm 2 m/s 751 mmHg 78%
    08:00 +23°C° 1.7 mm 2 m/s 751 mmHg 78%
    09:00 +21°C° 1.7 mm 2 m/s 751 mmHg 78%
    10:00 +23°C° 1.2 mm 2 m/s 751 mmHg 77%
    11:00 +23°C° 1.2 mm 2 m/s 751 mmHg 76%
    12:00 +23°C° 1.2 mm 1 m/s 751 mmHg 74%
    13:00 +24°C° 0.1 mm 1 m/s 750 mmHg 71%
    14:00 +24°C° 0.1 mm 1 m/s 750 mmHg 67%
    15:00 +25°C° 0.1 mm 1 m/s 750 mmHg 63%
    16:00 +25°C° 0 mm 1 m/s 750 mmHg 65%
    17:00 +24°C° 0 mm 1 m/s 750 mmHg 67%
    18:00 +24°C° 0 mm 1 m/s 750 mmHg 69%
    19:00 +23°C° 0 mm 1 m/s 751 mmHg 71%
    20:00 +23°C° 0 mm 1 m/s 751 mmHg 73%
    21:00 +23°C° 0 mm 1 m/s 751 mmHg 75%
    22:00 +22°C° 0 mm 1 m/s 751 mmHg 76%
    23:00 +22°C° 0 mm 1 m/s 751 mmHg 77%

    Amanhã, 26 Setembro, Quarta-feira

    Tempo Temperatura Precipitação Vento Pressão Humidade
    00:00 +22°C° 0 mm 1 m/s 751 mmHg 79%
    01:00 +21°C° 0 mm 2 m/s 751 mmHg 79%
    02:00 +21°C° 0 mm 2 m/s 751 mmHg 79%
    03:00 +21°C° 0 mm 2 m/s 751 mmHg 79%
    04:00 +20°C° 0 mm 2 m/s 751 mmHg 79%
    05:00 +21°C° 0 mm 1 m/s 751 mmHg 79%
    06:00 +21°C° 0 mm 1 m/s 751 mmHg 79%
    07:00 +22°C° 0 mm 1 m/s 751 mmHg 76%
    08:00 +23°C° 0 mm 1 m/s 751 mmHg 72%
    09:00 +24°C° 0 mm 1 m/s 751 mmHg 69%
    10:00 +24°C° 0.1 mm 1 m/s 751 mmHg 66%
    11:00 +25°C° 0.1 mm 1 m/s 751 mmHg 64%
    12:00 +26°C° 0.1 mm 1 m/s 751 mmHg 62%
    13:00 +26°C° 0.2 mm 1 m/s 750 mmHg 63%
    14:00 +26°C° 0.2 mm 1 m/s 750 mmHg 64%
    15:00 +26°C° 0.2 mm 1 m/s 749 mmHg 65%
    16:00 +25°C° 2.4 mm 1 m/s 749 mmHg 70%
    17:00 +24°C° 2.4 mm 1 m/s 750 mmHg 75%
    18:00 +23°C° 2.4 mm 1 m/s 750 mmHg 80%
    19:00 +23°C° 3.3 mm 1 m/s 750 mmHg 81%
    20:00 +23°C° 3.3 mm 1 m/s 750 mmHg 82%
    21:00 +23°C° 3.3 mm 1 m/s 750 mmHg 84%
    22:00 +22°C° 4 mm 1 m/s 749 mmHg 85%
    23:00 +21°C° 4 mm 2 m/s 749 mmHg 87%

    Depois de amanhã, 27 Setembro, Quinta-feira

    Tempo Temperatura Precipitação Vento Pressão Humidade
    00:00 +21°C° 4 mm 2 m/s 749 mmHg 88%
    01:00 +21°C° 5.9 mm 2 m/s 748 mmHg 89%
    02:00 +21°C° 5.9 mm 2 m/s 748 mmHg 89%
    03:00 +20°C° 5.9 mm 2 m/s 748 mmHg 90%
    04:00 +20°C° 4.1 mm 2 m/s 748 mmHg 89%
    05:00 +20°C° 4.1 mm 2 m/s 748 mmHg 88%
    06:00 +20°C° 4.1 mm 3 m/s 748 mmHg 87%
    07:00 +20°C° 2.2 mm 2 m/s 748 mmHg 86%
    08:00 +20°C° 2.2 mm 2 m/s 748 mmHg 86%
    09:00 +20°C° 2.2 mm 2 m/s 748 mmHg 85%
    10:00 +20°C° 1.8 mm 2 m/s 748 mmHg 85%
    11:00 +20°C° 1.8 mm 2 m/s 748 mmHg 84%
    12:00 +20°C° 1.8 mm 2 m/s 748 mmHg 84%
    13:00 +20°C° 0.1 mm 2 m/s 748 mmHg 81%
    14:00 +21°C° 0.1 mm 2 m/s 747 mmHg 78%
    15:00 +21°C° 0.1 mm 2 m/s 747 mmHg 75%
    16:00 +21°C° 0 mm 2 m/s 747 mmHg 76%
    17:00 +21°C° 0 mm 2 m/s 748 mmHg 77%
    18:00 +21°C° 0 mm 2 m/s 748 mmHg 78%
    19:00 +20°C° 0 mm 2 m/s 749 mmHg 79%
    20:00 +20°C° 0 mm 2 m/s 749 mmHg 80%
    21:00 +21°C° 0 mm 1 m/s 749 mmHg 81%
    22:00 +21°C° 0 mm 1 m/s 749 mmHg 82%
    23:00 +20°C° 0 mm 1 m/s 749 mmHg 83%

    28 Setembro, Sexta-feira

    Tempo Temperatura Precipitação Vento Pressão Humidade
    00:00 +20°C° 0 mm 1 m/s 749 mmHg 83%
    01:00 +19°C° 0 mm 2 m/s 749 mmHg 84%
    02:00 +19°C° 0 mm 2 m/s 749 mmHg 84%
    03:00 +18°C° 0 mm 2 m/s 749 mmHg 85%
    04:00 +18°C° 0 mm 2 m/s 750 mmHg 84%
    05:00 +18°C° 0 mm 2 m/s 750 mmHg 84%
    06:00 +18°C° 0 mm 2 m/s 750 mmHg 84%
    07:00 +19°C° 0 mm 2 m/s 751 mmHg 77%
    08:00 +21°C° 0 mm 2 m/s 751 mmHg 70%
    09:00 +23°C° 0 mm 2 m/s 751 mmHg 63%
    10:00 +25°C° 0 mm 1 m/s 751 mmHg 56%
    11:00 +27°C° 0 mm 1 m/s 751 mmHg 50%
    12:00 +28°C° 0 mm 1 m/s 751 mmHg 43%
    13:00 +28°C° 0 mm 1 m/s 750 mmHg 42%
    14:00 +29°C° 0 mm 1 m/s 750 mmHg 42%
    15:00 +29°C° 0 mm 1 m/s 750 mmHg 41%
    16:00 +27°C° 0 mm 2 m/s 750 mmHg 48%
    17:00 +26°C° 0 mm 2 m/s 751 mmHg 56%
    18:00 +24°C° 0 mm 2 m/s 751 mmHg 63%
    19:00 +24°C° 0 mm 2 m/s 752 mmHg 67%
    20:00 +23°C° 0 mm 2 m/s 752 mmHg 72%
    21:00 +22°C° 0 mm 1 m/s 752 mmHg 76%
    22:00 +22°C° 0 mm 1 m/s 752 mmHg 78%
    23:00 +22°C° 0 mm 1 m/s 752 mmHg 80%

    29 Setembro, Sábado

    Tempo Temperatura Precipitação Vento Pressão Humidade
    00:00 +22°C° 0 mm 1 m/s 752 mmHg 81%
    01:00 +22°C° 0 mm 1 m/s 752 mmHg 82%
    02:00 +22°C° 0 mm 1 m/s 752 mmHg 83%
    03:00 +22°C° 0 mm 1 m/s 752 mmHg 84%
    04:00 +21°C° 0.1 mm 1 m/s 752 mmHg 84%
    05:00 +20°C° 0.1 mm 2 m/s 752 mmHg 84%
    06:00 +20°C° 0.1 mm 2 m/s 752 mmHg 84%
    07:00 +21°C° 1.4 mm 2 m/s 752 mmHg 83%
    08:00 +21°C° 1.4 mm 2 m/s 752 mmHg 82%
    09:00 +21°C° 1.4 mm 2 m/s 752 mmHg 81%
    10:00 +21°C° 2 mm 2 m/s 752 mmHg 81%
    11:00 +21°C° 2 mm 2 m/s 751 mmHg 82%
    12:00 +21°C° 2 mm 2 m/s 751 mmHg 82%
    13:00 +21°C° 2.9 mm 2 m/s 751 mmHg 82%
    14:00 +20°C° 2.9 mm 2 m/s 750 mmHg 83%
    15:00 +20°C° 2.9 mm 2 m/s 750 mmHg 83%
    16:00 +20°C° 2.4 mm 3 m/s 750 mmHg 83%
    17:00 +20°C° 2.4 mm 3 m/s 750 mmHg 83%
    18:00 +19°C° 2.4 mm 3 m/s 750 mmHg 83%
    19:00 +19°C° 1.1 mm 2 m/s 750 mmHg 83%
    20:00 +19°C° 1.1 mm 2 m/s 750 mmHg 83%
    21:00 +19°C° 1.1 mm 2 m/s 750 mmHg 83%
    22:00 +19°C° 0.3 mm 2 m/s 749 mmHg 83%
    23:00 +19°C° 0.3 mm 2 m/s 748 mmHg 82%

    30 Setembro, Domingo

    Tempo Temperatura Precipitação Vento Pressão Humidade
    00:00 +19°C° 0.3 mm 3 m/s 748 mmHg 82%
    01:00 +19°C° 0.2 mm 3 m/s 747 mmHg 82%
    02:00 +20°C° 0.2 mm 3 m/s 747 mmHg 82%
    03:00 +20°C° 0.2 mm 3 m/s 747 mmHg 81%
    04:00 +20°C° 0.2 mm 3 m/s 746 mmHg 81%
    05:00 +20°C° 0.2 mm 3 m/s 746 mmHg 82%
    06:00 +20°C° 0.2 mm 3 m/s 746 mmHg 82%
    07:00 +21°C° 0.1 mm 3 m/s 745 mmHg 81%
    08:00 +21°C° 0.1 mm 3 m/s 745 mmHg 81%
    09:00 +22°C° 0.1 mm 3 m/s 744 mmHg 81%
    10:00 +22°C° 0.2 mm 4 m/s 743 mmHg 82%
    11:00 +23°C° 0.2 mm 4 m/s 742 mmHg 84%
    12:00 +23°C° 0.2 mm 5 m/s 741 mmHg 85%
    13:00 +24°C° 0.5 mm 6 m/s 740 mmHg 85%
    14:00 +24°C° 0.5 mm 6 m/s 739 mmHg 85%
    15:00 +26°C° 0.5 mm 7 m/s 738 mmHg 86%
    16:00 +26°C° 1.8 mm 9 m/s 735 mmHg 85%
    17:00 +26°C° 1.8 mm 11 m/s 733 mmHg 85%
    18:00 +27°C° 1.8 mm 13 m/s 731 mmHg 84%
    19:00 +27°C° 10.4 mm 16 m/s 726 mmHg 83%
    20:00 +28°C° 10.4 mm 20 m/s 722 mmHg 81%
    21:00 +28°C° 10.4 mm 23 m/s 717 mmHg 79%
    22:00 +28°C° 4.9 mm 20 m/s 719 mmHg 78%
    23:00 +28°C° 4.9 mm 16 m/s 722 mmHg 76%
    Mostrar mais